Weather Roundup
Issued by NWS Chicago, IL

Home | Current Version | Previous Version | Text Only | Print | Product List | Glossary On
Versions: 1 2 3 4 5 6 7 8 9 10 11 12 13 14 15 16 17 18 19 20 21 22 23 24 25 26 27 28 29 30 31 32 33 34 35 36 37 38 39 40 41 42 43 44 45 46 47 48 49 50
000
NZUS59 KLOT 240910
HRRLOT

CHICAGO AREA WEATHER ROUNDUP
NATIONAL WEATHER SERVICE CHICAGO/ROMEOVILLE IL
400 AM CDT THU APR 24 2014

NOTE: "FAIR" INDICATES FEW OR NO CLOUDS BELOW 12,000 FEET WITH NO
SIGNIFICANT WEATHER AND/OR OBSTRUCTIONS TO VISIBILITY.

* THESE STATIONS ARE NOT UNDER NWS QUALITY CONTROL. THEY ALSO MAY NOT
  REPORT WEATHER SUCH AS PRECIPITATION OR FOG.

ILZ005-006-012>014-019>023-241000-
NORTHEAST ILLINOIS

CITY           SKY/WX    TMP DP  RH WIND       PRES   REMARKS
OHARE          CLOUDY    40  31  70 N8        30.08S
MIDWAY         CLOUDY    43  35  73 N6        30.06F
AURORA         CLOUDY    41  33  73 NE12      30.04F
LANSING*       CLOUDY    42  37  84 NE6       30.06S
JOLIET*        CLOUDY    42  35  75 E6        30.04F
WAUKEGAN       CLOUDY    36  32  85 N3        30.09F
DUPAGE AIRPORT CLOUDY    39  32  76 NE9       30.04F
WHEELING       CLOUDY    39  33  79 NW6       30.11R
KANKAKEE*      CLOUDY    43  39  84 NE8       30.04S
MORRIS*        CLOUDY    42  34  72 NE9       30.03F
LEWIS AIRPORT* CLOUDY    42  35  76 E10       30.03F
NORTHERLY IS     N/A     41  34  76 N12         N/A
$$

WIZ051-052-058>065-066-070>072-241000-
SOUTHEAST WISCONSIN

CITY           SKY/WX    TMP DP  RH WIND       PRES   REMARKS
MILWAUKEE      CLOUDY    39  28  64 NW3       30.10F
KENOSHA*       CLOUDY    37  33  85 CALM      30.10F
RACINE*        LGT RAIN  37  33  85 CALM      30.11F
BURLINGTON     CLOUDY    34  31  86 NE6       30.07F WCI  29
WAUKESHA       RAIN      34  28  80 CALM      30.10F
WEST BEND      RAIN      37  18  44 CALM      30.10F
$$

INZ001>003-010>013-019-020-241000-
NORTHWEST INDIANA

CITY           SKY/WX    TMP DP  RH WIND       PRES   REMARKS
GARY*          CLOUDY    43  37  78 N6        30.07S
MICHIGAN CITY* NOT AVBL
RENSSELAER*    NOT AVBL
VALPARAISO     CLOUDY    43  38  82 NE6       30.06F
$$

LMZ740>746-241000-
SOUTHERN LAKE MICHIGAN

STATION/POSITION TIME  SKY/WX   TEMP WIND        PRES    VSBY
                                AIR  DIR/SP/G
                 (UTC)          (F)  (DEG/KT/KT) (MB)    (MI)
HARRISON CRIB    0900            39   30/  9/ 10   N/A
BURNHAM HARBOR   0900            41   10/  7/ 10   N/A
CALUMET HARBOR   0900            41   20/  8/ 12 1018.7F
BURNS HARBOR     NOT AVBL
MICHIGAN CITY    0900            46   90/  3/  5   N/A
$$

ABBREVIATIONS USED IN REMARKS
   TC - TEMPERATURE IN CELSIUS
  WCI - WIND CHILL INDEX
   HX - HEAT INDEX
  VSB - VISIBILITY
$$


USA.gov is the U.S. government's official web portal to all federal, state and local government web resources and services.